SAS943 EKCH-KORD

Flight info

Callsign SAS943
Flight time N/A
Altitude 36000
Route ODDON P60 NUGLO DCT GOLUM DCT GIVEM DCT TRN DCT LUTOV DCT RESNO/M080F380 DCT 56N020W 57N030W 57N040W 56N050W DCT JANJO/N0442F380 DCT SPOTE/N0450F400 DCT ULDON DCT YVO DCT ODAXY WYNDE3
Aircraft A343/H-SDE2E3FGHIJ4J5M1RWXY/LB1D1

Departure

Time 2026-04-26 01:03
Airport Copenhagen Kastrup Airport (EKCH)

Arrival

Time N/A
Airport Chicago O'Hare International Airport (KORD)
Time Latitude Longitude Altitude Speed Heading
2026-04-26 00:36 55.62432 12.65065 28 ft 0 kts 269°
2026-04-26 00:51 55.62432 12.65071 28 ft 2 kts 268°
2026-04-26 00:51 55.62433 12.65104 28 ft 3 kts 262°
2026-04-26 00:52 55.62437 12.65139 28 ft 3 kts 252°
2026-04-26 00:52 55.62444 12.65171 28 ft 3 kts 233°
2026-04-26 00:52 55.62457 12.65194 28 ft 3 kts 197°
2026-04-26 00:52 55.62467 12.65198 28 ft 0 kts 178°
2026-04-26 00:56 55.62464 12.65198 28 ft 1 kts 178°
2026-04-26 00:56 55.62436 12.65200 6 ft 7 kts 178°
2026-04-26 00:57 55.62377 12.65202 28 ft 9 kts 179°
2026-04-26 00:57 55.62313 12.65202 28 ft 9 kts 181°
2026-04-26 00:57 55.62234 12.65189 28 ft 15 kts 195°
2026-04-26 00:57 55.62131 12.65090 28 ft 17 kts 211°
2026-04-26 00:58 55.62032 12.64973 28 ft 17 kts 214°
2026-04-26 00:58 55.61933 12.64858 27 ft 17 kts 212°
2026-04-26 00:58 55.61832 12.64743 28 ft 17 kts 213°
2026-04-26 00:58 55.61711 12.64604 28 ft 25 kts 213°
2026-04-26 00:59 55.61564 12.64434 28 ft 25 kts 213°
2026-04-26 00:59 55.61420 12.64270 28 ft 24 kts 213°
2026-04-26 00:59 55.61280 12.64108 28 ft 24 kts 213°
2026-04-26 00:59 55.61138 12.63946 28 ft 26 kts 213°
2026-04-26 01:00 55.60987 12.63772 28 ft 26 kts 213°
2026-04-26 01:00 55.60839 12.63603 28 ft 25 kts 213°
2026-04-26 01:00 55.60694 12.63436 27 ft 24 kts 214°
2026-04-26 01:00 55.60564 12.63248 27 ft 24 kts 221°
2026-04-26 01:01 55.60478 12.63124 28 ft 13 kts 209°
2026-04-26 01:01 55.60404 12.63165 28 ft 12 kts 135°
2026-04-26 01:01 55.60348 12.63267 29 ft 11 kts 132°
2026-04-26 01:01 55.60345 12.63350 30 ft 6 kts 54°
2026-04-26 01:02 55.60373 12.63397 30 ft 0 kts 41°
2026-04-26 01:02 55.60374 12.63398 30 ft 2 kts 41°
2026-04-26 01:02 55.60535 12.63648 28 ft 58 kts 41°
2026-04-26 01:03 55.60966 12.64315 28 ft 105 kts 41°
2026-04-26 01:03 55.61620 12.65328 29 ft 143 kts 41°
2026-04-26 01:03 55.62412 12.66575 294 ft 154 kts 39°
2026-04-26 01:03 55.63225 12.67832 767 ft 156 kts 38°
2026-04-26 01:04 55.64047 12.69071 1337 ft 157 kts 36°
2026-04-26 01:04 55.64986 12.70192 1616 ft 173 kts 19°
2026-04-26 01:04 55.66206 12.70429 2028 ft 185 kts 358°
2026-04-26 01:04 55.67580 12.70258 2327 ft 209 kts 356°
2026-04-26 01:05 55.69068 12.70040 2979 ft 217 kts 356°
2026-04-26 01:05 55.70599 12.69859 3714 ft 224 kts 356°
2026-04-26 01:05 55.72182 12.69688 4430 ft 230 kts 355°
2026-04-26 01:05 55.73797 12.69517 5200 ft 235 kts 355°
2026-04-26 01:06 55.75419 12.69347 5984 ft 237 kts 355°
2026-04-26 01:06 55.77075 12.69173 6797 ft 239 kts 355°
2026-04-26 01:06 55.78740 12.69000 7617 ft 239 kts 355°
2026-04-26 01:06 55.80390 12.68683 8437 ft 238 kts 346°
2026-04-26 01:07 55.81916 12.67557 9251 ft 239 kts 328°
2026-04-26 01:07 55.83090 12.65494 10017 ft 245 kts 308°
2026-04-26 01:07 55.83877 12.62730 10572 ft 258 kts 299°
2026-04-26 01:07 55.84555 12.59668 10894 ft 273 kts 298°
2026-04-26 01:08 55.85253 12.56438 11204 ft 286 kts 298°
2026-04-26 01:08 55.85993 12.53053 11546 ft 299 kts 298°
2026-04-26 01:08 55.86758 12.49562 12075 ft 305 kts 298°
2026-04-26 01:08 55.87536 12.46021 12650 ft 308 kts 298°
2026-04-26 01:09 55.88315 12.42442 13316 ft 311 kts 298°
2026-04-26 01:09 55.88923 12.38749 13986 ft 320 kts 290°
2026-04-26 01:09 55.89154 12.34726 14573 ft 333 kts 280°
2026-04-26 01:09 55.88890 12.30521 15106 ft 351 kts 268°
2026-04-26 01:10 55.88058 12.26312 15648 ft 370 kts 256°
2026-04-26 01:10 55.86832 12.22194 16200 ft 379 kts 252°
2026-04-26 01:10 55.85532 12.18080 16752 ft 383 kts 252°
2026-04-26 01:10 55.84239 12.13977 17257 ft 386 kts 252°
2026-04-26 01:11 55.82926 12.09783 17806 ft 389 kts 253°
2026-04-26 01:11 55.81602 12.05544 18330 ft 393 kts 253°
2026-04-26 01:11 55.80267 12.01262 18792 ft 397 kts 253°
2026-04-26 01:11 55.78922 11.96954 19263 ft 400 kts 253°
2026-04-26 01:12 55.77563 11.92608 19716 ft 403 kts 253°
2026-04-26 01:12 55.76215 11.88303 20190 ft 405 kts 253°
2026-04-26 01:12 55.74836 11.83905 20590 ft 408 kts 252°
2026-04-26 01:12 55.73448 11.79488 21029 ft 410 kts 252°
2026-04-26 01:13 55.72051 11.75052 21522 ft 412 kts 252°
2026-04-26 01:13 55.70652 11.70614 21978 ft 414 kts 252°
2026-04-26 01:13 55.69238 11.66132 22403 ft 417 kts 252°
2026-04-26 01:13 55.67832 11.61688 22817 ft 420 kts 252°
2026-04-26 01:14 55.66395 11.57153 23242 ft 423 kts 252°
2026-04-26 01:14 55.64949 11.52597 23658 ft 425 kts 252°
2026-04-26 01:14 55.63491 11.48013 24008 ft 428 kts 251°
2026-04-26 01:14 55.62082 11.43375 24375 ft 424 kts 256°
2026-04-26 01:15 55.61033 11.38565 24739 ft 413 kts 265°
2026-04-26 01:15 55.60471 11.33729 25083 ft 401 kts 274°
2026-04-26 01:15 55.60249 11.28832 25422 ft 398 kts 277°
2026-04-26 01:15 55.60103 11.23917 25754 ft 400 kts 277°
2026-04-26 01:16 55.59958 11.19003 26038 ft 402 kts 276°
2026-04-26 01:16 55.59808 11.14045 26360 ft 403 kts 276°
2026-04-26 01:16 55.59652 11.09143 26680 ft 405 kts 276°
2026-04-26 01:16 55.59494 11.04155 26978 ft 406 kts 276°
2026-04-26 01:17 55.59321 10.99151 27294 ft 408 kts 275°
2026-04-26 01:17 55.59145 10.94121 27603 ft 410 kts 275°
2026-04-26 01:17 55.58966 10.89074 27902 ft 411 kts 275°
2026-04-26 01:17 55.58786 10.84012 28194 ft 413 kts 275°
2026-04-26 01:18 55.58604 10.78923 28481 ft 414 kts 275°
2026-04-26 01:18 55.58422 10.73895 28759 ft 416 kts 275°
2026-04-26 01:18 55.58258 10.68779 29025 ft 416 kts 277°
2026-04-26 01:18 55.58359 10.63698 29291 ft 409 kts 284°
2026-04-26 01:19 55.58762 10.58728 29553 ft 408 kts 287°
2026-04-26 01:19 55.59251 10.53841 29808 ft 408 kts 288°
2026-04-26 01:19 55.59788 10.48898 30065 ft 409 kts 288°
2026-04-26 01:19 55.60336 10.43967 30306 ft 411 kts 288°
2026-04-26 01:20 55.60886 10.38991 30512 ft 412 kts 288°
2026-04-26 01:20 55.61429 10.33997 30699 ft 414 kts 288°
2026-04-26 01:20 55.61963 10.28996 30913 ft 415 kts 287°
2026-04-26 01:20 55.62487 10.24018 31098 ft 417 kts 287°
2026-04-26 01:21 55.63012 10.18969 31310 ft 418 kts 287°
2026-04-26 01:21 55.63533 10.13914 31587 ft 417 kts 287°
2026-04-26 01:21 55.64053 10.08848 31807 ft 417 kts 287°
2026-04-26 01:21 55.64575 10.03769 31917 ft 420 kts 286°
2026-04-26 01:22 55.65095 9.98735 32129 ft 420 kts 286°
2026-04-26 01:22 55.65613 9.93648 32407 ft 419 kts 286°
2026-04-26 01:22 55.66133 9.88572 32683 ft 418 kts 287°
2026-04-26 01:22 55.66702 9.83524 32940 ft 417 kts 288°
2026-04-26 01:23 55.67305 9.78494 33165 ft 416 kts 288°
2026-04-26 01:23 55.67908 9.73544 33401 ft 416 kts 288°
2026-04-26 01:23 55.68518 9.68529 33633 ft 416 kts 288°
2026-04-26 01:23 55.69121 9.63504 33870 ft 415 kts 288°
2026-04-26 01:24 55.69715 9.58488 34114 ft 415 kts 288°
2026-04-26 01:24 55.70296 9.53536 34237 ft 416 kts 287°
2026-04-26 01:24 55.71470 9.43414 34482 ft 419 kts 287°
2026-04-26 01:25 55.72050 9.38360 34677 ft 418 kts 287°
2026-04-26 01:25 55.72621 9.33365 34861 ft 418 kts 287°
2026-04-26 01:25 55.73197 9.28307 35040 ft 417 kts 287°
2026-04-26 01:25 55.73771 9.23252 35211 ft 417 kts 287°
2026-04-26 01:26 55.74342 9.18203 35375 ft 417 kts 287°
2026-04-26 01:26 55.74913 9.13143 35538 ft 417 kts 287°
2026-04-26 01:26 55.75481 9.08089 35694 ft 416 kts 287°
2026-04-26 01:26 55.76039 9.03109 35857 ft 416 kts 287°
2026-04-26 01:27 55.77169 8.92972 35961 ft 420 kts 285°
2026-04-26 01:27 55.77733 8.87876 36114 ft 420 kts 285°
2026-04-26 01:27 55.78294 8.82781 36206 ft 421 kts 285°
2026-04-26 01:28 55.79218 8.74331 36213 ft 416 kts 285°
2026-04-26 01:28 55.80312 8.64252 36211 ft 415 kts 285°
2026-04-26 01:29 55.81402 8.54162 36213 ft 415 kts 285°
2026-04-26 01:29 55.82476 8.44138 36198 ft 415 kts 285°
2026-04-26 01:30 55.83554 8.34006 36217 ft 417 kts 284°
2026-04-26 01:30 55.84608 8.23820 36217 ft 418 kts 283°
2026-04-26 01:31 55.85338 8.13569 36221 ft 420 kts 280°
2026-04-26 01:31 55.85951 8.03209 36222 ft 420 kts 280°
2026-04-26 01:32 55.86597 7.92856 36223 ft 420 kts 281°
2026-04-26 01:32 55.87176 7.82555 36227 ft 423 kts 275°
2026-04-26 01:33 55.86533 7.72044 36230 ft 431 kts 261°
2026-04-26 01:33 55.84997 7.61673 36235 ft 434 kts 259°
2026-04-26 01:34 55.83303 7.51342 36235 ft 434 kts 258°
2026-04-26 01:34 55.81613 7.41093 36241 ft 434 kts 258°
2026-04-26 01:35 55.79926 7.30771 36228 ft 434 kts 258°
2026-04-26 01:35 55.78252 7.20518 36248 ft 434 kts 258°
2026-04-26 01:36 55.76562 7.10220 36249 ft 434 kts 258°
2026-04-26 01:37 55.74008 6.94781 36255 ft 434 kts 258°
2026-04-26 01:37 55.72305 6.84569 36254 ft 434 kts 257°
2026-04-26 01:38 55.70581 6.74289 36254 ft 434 kts 257°
2026-04-26 01:38 55.68851 6.64031 36262 ft 434 kts 257°
2026-04-26 01:39 55.67121 6.53837 36260 ft 434 kts 256°
2026-04-26 01:39 55.65374 6.43601 36270 ft 434 kts 256°
2026-04-26 01:40 55.63620 6.33379 36271 ft 434 kts 256°
2026-04-26 01:40 55.61868 6.23231 36265 ft 434 kts 256°
2026-04-26 01:41 55.60094 6.13006 36278 ft 435 kts 255°
2026-04-26 01:41 55.58307 6.02771 36283 ft 435 kts 255°
2026-04-26 01:42 55.56522 5.92609 36282 ft 435 kts 255°